This is the latest recevied weather packets stored in our database for station/object K4AMF. If no packets are shown the sender has not sent any weather packets the latest 1 day(s).
| Time | Temp. | Humidity | Pressure | Rain* | Wind** | Luminosity | Snow |
|---|---|---|---|---|---|---|---|
| 1836274713 | 24.44° C | 90% | 1016.7 hPa | 0 mm | 0 m/s | 0 W/m² | - |
| 1836274566 | 24.44° C | 90% | 1016.6 hPa | 0 mm | 0 m/s | 0 W/m² | - |
| 1836274412 | 25° C | 90% | 1016.7 hPa | 0 mm | 0 m/s | 0 W/m² | - |
| 1836274265 | 24.44° C | 90% | 1016.6 hPa | 0 mm | 0 m/s | 0 W/m² | - |
| 1836274110 | 25° C | 89% | 1016.8 hPa | 0 mm | 0 m/s | 0 W/m² | - |
| 1778035418 | 21.67° C | 72% | 1017.9 hPa | 0 mm | 0 m/s | 0 W/m² | - |
| 1778035115 | 21.67° C | 72% | 1017.5 hPa | 0 mm | 0 m/s | 0 W/m² | - |
| 1778034811 | 21.67° C | 72% | 1017.5 hPa | 0 mm | 0.89 m/s, 129° | 0 W/m² | - |
| 1778034508 | 21.67° C | 72% | 1017.5 hPa | 0 mm | 0 m/s | 0 W/m² | - |
| 1778034206 | 21.67° C | 72% | 1017.5 hPa | 0 mm | 0.45 m/s, 16° | 0 W/m² | - |
| 1778033904 | 21.67° C | 72% | 1017.3 hPa | 0 mm | 0.45 m/s, 132° | 0 W/m² | - |
| 1778033601 | 22.22° C | 71% | 1017.1 hPa | 0 mm | 1.34 m/s, 119° | 0 W/m² | - |
| 1778033297 | 22.22° C | 71% | 1017.3 hPa | 0 mm | 1.34 m/s, 129° | 0 W/m² | - |
| 1778032995 | 22.22° C | 71% | 1017.3 hPa | 0 mm | 1.79 m/s, 132° | 0 W/m² | - |
| 1778032693 | 22.22° C | 71% | 1017.3 hPa | 0 mm | 0.45 m/s, 158° | 0 W/m² | - |
| 1778032390 | 22.22° C | 70% | 1017.1 hPa | 0 mm | 1.34 m/s, 121° | 0 W/m² | - |
| 1778032086 | 22.22° C | 70% | 1017.1 hPa | 0 mm | 1.79 m/s, 114° | 0 W/m² | - |
| 1778031783 | 22.22° C | 70% | 1016.9 hPa | 0 mm | 1.79 m/s, 124° | 0 W/m² | - |
| 1778031480 | 22.22° C | 70% | 1016.9 hPa | 0 mm | 1.34 m/s, 133° | 0 W/m² | - |
| 1778031177 | 22.22° C | 70% | 1016.8 hPa | 0 mm | 2.24 m/s, 97° | 0 W/m² | - |
| 1778030874 | 22.22° C | 69% | 1016.8 hPa | 0 mm | 3.13 m/s, 151° | 0 W/m² | - |
| 1778030571 | 22.22° C | 69% | 1016.9 hPa | 0 mm | 0.89 m/s, 74° | 0 W/m² | - |
| 1778030268 | 22.22° C | 69% | 1016.8 hPa | 0 mm | 1.34 m/s, 142° | 0 W/m² | - |
| 1778029964 | 22.22° C | 69% | 1016.8 hPa | 0 mm | 1.79 m/s, 148° | 0 W/m² | - |
| 1778029663 | 22.22° C | 69% | 1016.8 hPa | 0 mm | 1.79 m/s, 162° | 0 W/m² | - |
* Rain latest hour (hover to see other rain measurements)
** Current wind speed in m/s (hover to see current wind gust speed)